Погода в Нуса-Дуа

Индонезия     8°48′02″S   115°13′49″E
темп.,
°C
ветер,
м/с
пор.,
м/с
влажн.,
%
обл.,
%
осадки,
мм/ч
давл.,
гПа
погр.,
м
2 марта, вт
вт223:00+27ссв238018 0.2 1011104
02:00+26с227528 0.6 100987
05:00+26ссз227469 0.0 100896
08:00+26с227242 0.0 101098
11:00+28юв22670 0.0 1010197
14:00+28ююв43694 0.0 1008328
17:00+29ююз346843 0.1 1007511
20:00+28зюз357824 0.6 1010306
3 марта, ср
ср323:00+27сз23790 0.9 1011217
02:00+26с33790 1.6 1009136
05:00+26ссз33771 0.4 1009123
08:00+27ссв22735 0.4 1011139
11:00+27ююз12710 0.0 1011209
14:00+28ююв22700 0.0 1008326
17:00+29юв226669 0.0 1008535
20:00+29вюв117845 0.0 101025
4 марта, чт
чт423:00+27ссз33760 0.0 1012110
02:00+27ссз227435 0.0 1010110
05:00+26сз227483 0.0 1010134
08:00+26сз227391 0.0 1011123
11:00+27зюз347480 0.0 1011323
14:00+28зюз577390 0.0 1009620
17:00+28зюз5777100 1.1 1008557
20:00+28з587795 3.1 1010521
5 марта, пт
пт523:00+27зсз6877100 0.2 1011712
02:00+27зсз7981100 1.3 1010737
05:00+26юз6788100 8.0 1010549
08:00+25вюв3387100 16.2 1011205
11:00+25с3387100 1.1 1012268
14:00+27зюз3578100 1.1 1009533
17:00+27ююз5577100 0.1 1008660
20:00+27юз2274100 0.1 1010595
6 марта, сб
сб623:00+26ссз2277100 0.0 1010207
02:00+26сз228298 0.0 1009144
05:00+25ссв117895 0.0 1009115
08:00+26с227498 0.0 1010141
11:00+27ююв1170100 0.0 1010183
14:00+27ю227092 0.1 1008325
17:00+28ююв12673 0.1 1008339
20:00+28ююв117033 0.2 1010159